Location: Kitchener
(43.4500°N, 80.5000°W)
Time: 15:47:44
(UTC-04:00)

ATLAS 5 CENTAUR R/B - Visible Passes

Search period start: 23 August 2014 00:00
Search period end: 02 September 2014 00:00
Orbit: 721 x 942 km, 63.4° (Epoch: 19 August)

Date Brightness Start Highest point End Pass type
(mag) Time Alt. Az. Time Alt. Az. Time Alt. Az.
23 Aug 3.1 02:59:29 37° E 02:59:29 37° E 03:03:24 10° NE visible
23 Aug 3.0 04:41:04 26° W 04:43:08 35° NW 04:48:13 10° NNE visible
24 Aug 3.5 02:41:34 30° ENE 02:41:34 30° ENE 02:44:51 10° NE visible
24 Aug 2.9 04:23:09 31° WNW 04:24:34 37° NW 04:29:42 10° NNE visible
24 Aug 4.3 06:08:43 10° NW 06:11:03 13° NNW 06:13:26 10° N visible
25 Aug 3.8 02:23:38 25° ENE 02:23:38 25° ENE 02:26:16 10° NE visible
25 Aug 2.8 04:05:13 36° WNW 04:06:01 38° NW 04:11:12 10° NNE visible
25 Aug 4.3 05:50:00 10° NW 05:52:27 13° NNW 05:54:57 10° N visible
26 Aug 4.1 02:05:40 21° ENE 02:05:40 21° ENE 02:07:42 10° NE visible
26 Aug 2.8 03:47:15 40° NW 03:47:28 40° NW 03:52:41 10° NNE visible
26 Aug 4.4 05:31:18 10° NW 05:33:51 13° NNW 05:36:28 10° N visible
27 Aug 4.3 01:47:41 17° ENE 01:47:41 17° ENE 01:49:08 10° NE visible
27 Aug 2.9 03:29:15 41° NW 03:29:15 41° NW 03:34:11 10° NNE visible
27 Aug 4.4 05:12:36 10° NW 05:15:15 14° NNW 05:17:59 10° N visible
28 Aug 4.5 01:29:39 14° ENE 01:29:39 14° ENE 01:30:33 10° NE visible
28 Aug 3.0 03:11:14 40° NNW 03:11:14 40° NNW 03:15:40 10° NNE visible
28 Aug 4.4 04:53:54 10° NW 04:56:39 14° NNW 04:59:30 10° N visible
29 Aug 4.7 01:11:37 12° ENE 01:11:37 12° ENE 01:11:58 10° NE visible
29 Aug 3.3 02:53:11 38° N 02:53:11 38° N 02:57:09 10° NNE visible
29 Aug 4.4 04:35:12 10° NW 04:38:04 14° NNW 04:41:00 10° N visible
30 Aug 3.5 02:35:07 34° N 02:35:07 34° N 02:38:38 10° NNE visible
30 Aug 4.4 04:16:41 10° NW 04:19:28 15° NNW 04:22:31 10° N visible
31 Aug 3.7 02:17:02 31° N 02:17:02 31° N 02:20:07 10° NNE visible
31 Aug 4.3 03:58:35 12° NW 04:00:52 15° NNW 04:04:01 10° N visible
01 Sep 3.9 01:58:55 27° NNE 01:58:55 27° NNE 02:01:36 10° NNE visible
01 Sep 4.3 03:40:29 13° NW 03:42:17 15° NNW 03:45:32 10° NNE visible
